Flag for Germany Weather past 2 weeks in Cottbus, Brandenburg, Germany

Now
62 °F

Overcast.


Feels Like: 62 °F
Forecast: 57 / 72 °F
Wind: 2 mph from South

Location: Cottbus

Current Time: Aug 29, 2014 at 10:17:56 AM

Latest Report: Aug 29, 2014 at 9:00 AM


Visibility: 16 mi

Pressure: 29.98 "Hg

Humidity: 68%

Dew point: 51 °F

Location of CottbusLocation

Historic Weather in Cottbus — Graph

°F

Cottbus temperature yesterday

Maximum temperature yesterday: 72 °F (at 4:00 PM)
Minimum temperature yesterday: 44 °F (at 5:00 AM)
Average temperature yesterday: 58 °F

Past Weeks' High & Low Weather Summary

 TemperatureHumidityPressure
High73 °F (Aug 14, 5:00 PM)100% (Aug 27, 7:00 AM)30.09 "Hg (Aug 27, 7:00 AM)
Low43 °F (Aug 25, 6:00 AM)32% (Aug 28, 4:00 PM)29.67 "Hg (Aug 18, 3:00 PM)
Average59 °F73%29.91 "Hg
* Reported Aug 14 9:00 AM — Aug 29 9:00 AM, Cottbus, Weather by CustomWeather, © 2014

Note: Actual official high and low records may vary slightly from our data, if they occured in-between our weather recording intervals... More about our weather records

Advertising

Cottbus weather history for previous 24 hours

 ConditionsComfort  
Time TempWeatherWind HumidityBarometerVisibility
9:00 AM
Aug 29
62 °FOvercast.2 mph68%29.98 "Hg16 mi
8:00 AM59 °FOvercast.1 mph71%29.98 "Hg16 mi
7:00 AM55 °FOvercast.2 mph81%29.99 "Hg12 mi
6:00 AM54 °FOvercast.2 mph83%30.00 "Hg12 mi
5:00 AM49 °FOvercast.1 mph95%30.01 "Hg7 mi
4:00 AM48 °FOvercast.1 mph96%30.02 "Hg7 mi
3:00 AM48 °FPassing clouds.1 mph96%30.02 "Hg6 mi
2:00 AM48 °FPassing clouds.1 mph96%30.03 "Hg5 mi
1:00 AM49 °FFog.1 mph96%30.04 "Hg4 mi
12:00 AM50 °FPassing clouds.1 mph96%30.04 "Hg6 mi
11:00 PM
Aug 28
51 °FPassing clouds.1 mph93%30.04 "Hg7 mi
10:00 PM53 °FOvercast.1 mph91%30.04 "Hg8 mi
9:00 PM56 °FPassing clouds.1 mph84%30.03 "Hg13 mi
8:00 PM62 °FClear.1 mph67%30.03 "Hg19 mi
7:00 PM71 °FSunny.1 mph40%30.02 "Hg22 mi
6:00 PM72 °FSunny.2 mph37%30.03 "Hg25 mi
5:00 PM72 °FScattered clouds.2 mph34%30.03 "Hg25 mi
4:00 PM72 °FSunny.2 mph32%30.04 "Hg18 mi
3:00 PM70 °FPassing clouds.2 mph35%30.06 "Hg31 mi
2:00 PM70 °FPassing clouds.1 mph37%30.06 "Hg31 mi
1:00 PM69 °FPassing clouds.2 mph40%30.07 "Hg28 mi
12:00 PM68 °FPassing clouds.2 mph50%30.08 "Hg25 mi
11:00 AM65 °FSunny.3 mph54%30.09 "Hg22 mi
10:00 AM61 °FSunny.2 mph63%30.09 "Hg19 mi
Weather by CustomWeather, © 2014

See weather overviewHow to use our weather pages